GW6390 Weather Reports


time (UTC)temp
C
wind
direction
speed
KPH
gust
KPH
rain 1hr
cm
rain 24hr
cm
rain mn
cm
humidity
%
barometer
mb
20260507195516 20 317 19.3 32.2 0.00 0.00 0.00 28 1011.2
20260507195018 20 314 16.1 25.7 0.00 0.00 0.00 27 1011.3
20260507194614 20 352 19.3 33.8 0.00 0.00 0.00 28 1011.2
20260507194014 20 314 19.3 33.8 0.00 0.00 0.00 28 1011.3
20260507193514 20 344 20.9 35.4 0.00 0.00 0.00 28 1011.3
20260507193044 20 350 20.9 35.4 0.00 0.00 0.00 28 1011.5
20260507192519 20 340 16.1 29.0 0.00 0.00 0.00 29 1011.4
20260507192018 20 323 24.1 38.6 0.00 0.00 0.00 28 1011.4
20260507191533 20 344 19.3 38.6 0.00 0.00 0.00 28 1011.5
20260507191010 20 323 25.7 38.6 0.00 0.00 0.00 28 1011.4
20260507190520 21 346 24.1 32.2 0.00 0.00 0.00 28 1011.4
20260507190107 20 350 20.9 30.6 0.00 0.00 0.00 30 1011.6
20260507185517 20 313 22.5 33.8 0.00 0.00 0.00 30 1011.6
20260507185017 20 327 19.3 37.0 0.00 0.00 0.00 29 1011.8
20260507184609 20 329 20.9 30.6 0.00 0.00 0.00 29 1011.7
20260507184017 20 360 9.7 32.2 0.00 0.00 0.00 31 1011.7
20260507183521 20 332 24.1 32.2 0.00 0.00 0.00 31 1011.6
20260507183108 20 360 19.3 33.8 0.00 0.00 0.00 31 1011.9
20260507182519 20 352 25.7 33.8 0.00 0.00 0.00 30 1012.0
20260507182010 20 335 17.7 38.6 0.00 0.00 0.00 32 1011.9
20260507181620 20 332 29.0 38.6 0.00 0.00 0.00 32 1011.7
20260507181021 20 352 17.7 37.0 0.00 0.00 0.00 32 1012.1
20260507180516 20 331 25.7 37.0 0.00 0.00 0.00 33 1012.0
20260507180106 19 350 22.5 35.4 0.00 0.00 0.00 33 1012.0
20260507175522 19 346 17.7 33.8 0.00 0.00 0.00 34 1012.1
20260507175022 20 315 24.1 32.2 0.00 0.00 0.00 33 1012.0
20260507174607 19 324 22.5 37.0 0.00 0.00 0.00 34 1012.0
20260507174019 19 346 27.4 37.0 0.00 0.00 0.00 33 1012.0
20260507173523 19 347 24.1 35.4 0.00 0.00 0.00 35 1011.9
20260507173132 19 352 17.7 37.0 0.00 0.00 0.00 34 1012.1
20260507172515 19 360 24.1 37.0 0.00 0.00 0.00 34 1012.1
20260507172011 18 32 19.3 32.2 0.00 0.00 0.00 35 1012.3
20260507171611 18 323 22.5 30.6 0.00 0.00 0.00 34 1012.2
20260507171016 18 348 20.9 32.2 0.00 0.00 0.00 35 1012.2
20260507170635 18 342 20.9 32.2 0.00 0.00 0.00 36 1012.1
20260507170116 18 327 22.5 29.0 0.00 0.00 0.00 35 1012.1
20260507165520 18 17 6.4 22.5 0.00 0.00 0.00 35 1012.2
20260507165017 18 331 9.7 22.5 0.00 0.00 0.00 36 1012.1
20260507164610 18 336 17.7 22.5 0.00 0.00 0.00 35 1012.2
20260507164024 18 5 9.7 20.9 0.00 0.00 0.00 36 1012.4
20260507163524 17 32 11.3 20.9 0.00 0.00 0.00 37 1012.3
20260507163048 17 40 3.2 16.1 0.00 0.00 0.00 36 1012.4
20260507162521 16 352 9.7 16.1 0.00 0.00 0.00 37 1012.4
20260507162024 16 78 1.6 9.7 0.00 0.00 0.00 36 1012.3
20260507161556 16 294 0.0 14.5 0.00 0.00 0.00 37 1012.5
20260507161016 16 350 4.8 16.1 0.00 0.00 0.00 37 1012.5
20260507160517 16 280 6.4 16.1 0.00 0.00 0.00 37 1012.4
20260507160045 15 295 4.8 12.9 0.00 0.00 0.00 37 1012.6
20260507155517 15 252 1.6 16.1 0.00 0.00 0.00 38 1012.6
20260507155016 15 284 6.4 16.1 0.00 0.00 0.00 37 1012.6
20260507154545 14 268 3.2 11.3 0.00 0.00 0.00 38 1012.5
20260507154027 13 277 4.8 11.3 0.00 0.00 0.00 36 1012.6
20260507153514 13 297 1.6 12.9 0.00 0.00 0.00 36 1012.7
20260507153059 13 306 3.2 14.5 0.00 0.00 0.00 36 1012.7
20260507152522 12 257 9.7 14.5 0.00 0.00 0.00 37 1012.7
20260507152010 12 219 3.2 9.7 0.00 0.00 0.00 36 1012.7
20260507151551 11 202 1.6 9.7 0.00 0.00 0.00 36 1012.3
20260507151018 11 245 3.2 8.0 0.00 0.00 0.00 36 1012.6
20260507150518 11 245 3.2 8.0 0.00 0.00 0.00 37 1012.7
20260507150059 10 245 3.2 9.7 0.00 0.00 0.00 39 1012.6
20260507145519 10 241 8.0 9.7 0.00 0.00 0.00 35 1012.5
20260507145012 10 254 6.4 11.3 0.00 0.00 0.00 34 1012.5
20260507144548 9 266 4.8 8.0 0.00 0.00 0.00 36 1012.7
20260507144020 9 291 6.4 11.3 0.00 0.00 0.00 37 1012.7
20260507143523 9 267 6.4 11.3 0.00 0.00 0.00 39 1012.8
20260507143051 8 284 6.4 11.3 0.00 0.00 0.00 38 1012.6
20260507142510 8 234 4.8 9.7 0.00 0.00 0.00 39 1012.5
20260507142019 8 281 6.4 9.7 0.00 0.00 0.00 39 1012.7
20260507141612 8 308 3.2 8.0 0.00 0.00 0.00 40 1012.6
20260507141014 8 308 4.8 8.0 0.00 0.00 0.00 40 1012.7
20260507140515 7 308 4.8 8.0 0.00 0.00 0.00 40 1012.6
20260507140042 7 252 3.2 8.0 0.00 0.00 0.00 40 1012.6
20260507135518 7 331 4.8 9.7 0.00 0.00 0.00 40 1012.5
20260507135023 7 314 6.4 14.5 0.00 0.00 0.00 41 1012.6
20260507134603 7 325 8.0 14.5 0.00 0.00 0.00 42 1012.6
20260507134025 7 330 8.0 12.9 0.00 0.00 0.00 41 1012.6
20260507133648 7 349 8.0 12.9 0.00 0.00 0.00 40 1012.4
20260507133039 7 341 8.0 9.7 0.00 0.00 0.00 40 1012.1
20260507132521 7 336 4.8 8.0 0.00 0.00 0.00 41 1012.6
20260507132015 7 314 3.2 6.4 0.00 0.00 0.00 42 1012.5
20260507131540 7 311 3.2 6.4 0.00 0.00 0.00 43 1012.4
20260507131016 7 294 3.2 8.0 0.00 0.00 0.00 46 1012.5
20260507130648 7 294 4.8 8.0 0.00 0.00 0.00 45 1012.4
20260507130643 6 299 3.2 8.0 0.00 0.00 0.00 43 1012.2
20260507125519 6 316 3.2 8.0 0.00 0.00 0.00 44 1012.0
20260507125007 6 294 4.8 8.0 0.00 0.00 0.00 45 1012.2
20260507124559 6 306 4.8 8.0 0.00 0.00 0.00 46 1012.0
20260507124017 6 288 3.2 9.7 0.00 0.00 0.00 46 1011.7
20260507123515 6 284 4.8 8.0 0.00 0.00 0.00 46 1011.7
20260507123100 6 312 3.2 6.4 0.00 0.00 0.00 46 1011.6
20260507122517 6 321 3.2 6.4 0.00 0.00 0.00 46 1011.5
20260507122018 6 321 3.2 6.4 0.00 0.00 0.00 46 1011.4
20260507121549 6 279 3.2 8.0 0.00 0.00 0.00 46 1011.5
20260507121016 6 275 4.8 8.0 0.00 0.00 0.00 46 1011.5
20260507120515 5 284 4.8 8.0 0.00 0.00 0.00 49 1011.7
20260507120039 5 300 4.8 6.4 0.00 0.00 0.00 50 1011.9
20260507115516 5 355 3.2 8.0 0.00 0.00 0.00 52 1012.0
20260507115014 5 355 4.8 8.0 0.00 0.00 0.00 54 1011.8
20260507114536 5 59 1.6 3.2 0.00 0.00 0.00 55 1011.6
20260507114014 5 59 1.6 4.8 0.00 0.00 0.00 54 1011.6
20260507113516 5 59 3.2 4.8 0.00 0.00 0.00 54 1011.3
20260507113045 5 59 3.2 6.4 0.00 0.00 0.00 54 1011.3
20260507112515 5 59 3.2 8.0 0.00 0.00 0.00 55 1011.3
20260507112016 5 260 3.2 8.0 0.00 0.00 0.00 56 1011.0
20260507111537 5 360 3.2 14.5 0.00 0.00 0.00 55 1010.9
20260507111015 5 283 6.4 14.5 0.00 0.00 0.00 56 1010.8
20260507110514 5 248 11.3 16.1 0.00 0.00 0.00 56 1010.9
20260507110040 5 277 9.7 16.1 0.00 0.00 0.00 56 1010.6
20260507105515 5 277 8.0 12.9 0.00 0.00 0.00 56 1010.5
20260507105012 5 254 8.0 14.5 0.00 0.00 0.00 55 1010.5
20260507104539 5 254 11.3 14.5 0.00 0.00 0.00 54 1010.3
20260507104015 5 260 11.3 14.5 0.00 0.00 0.00 53 1010.1
20260507103529 5 263 11.3 14.5 0.00 0.00 0.00 52 1010.0
20260507103058 5 289 11.3 14.5 0.00 0.00 0.00 51 1010.1
20260507102514 5 281 11.3 12.9 0.00 0.00 0.00 51 1010.1
20260507102017 5 283 8.0 12.9 0.00 0.00 0.00 51 1010.0
20260507101545 5 267 11.3 12.9 0.00 0.00 0.00 51 1010.1
20260507101024 5 280 6.4 14.5 0.00 0.00 0.00 51 1010.1
20260507100515 5 287 9.7 14.5 0.00 0.00 0.00 51 1010.1
20260507100043 5 307 8.0 12.9 0.00 0.00 0.00 51 1010.2
20260507095514 5 301 9.7 12.9 0.00 0.00 0.00 52 1010.1
20260507095016 5 283 9.7 12.9 0.00 0.00 0.00 52 1010.1
20260507094553 5 275 6.4 11.3 0.00 0.00 0.00 51 1010.1
20260507094022 5 273 6.4 11.3 0.00 0.00 0.00 51 1010.2
20260507093522 5 267 8.0 11.3 0.00 0.00 0.00 51 1010.2
20260507093053 6 250 6.4 8.0 0.00 0.00 0.00 49 1010.0
20260507092513 6 273 8.0 9.7 0.00 0.00 0.00 49 1010.1
20260507092023 6 328 4.8 6.4 0.00 0.00 0.00 48 1009.9
20260507091546 6 328 4.8 6.4 0.00 0.00 0.00 49 1010.0
20260507091017 6 328 3.2 4.8 0.00 0.00 0.00 49 1010.0
20260507090516 6 328 3.2 4.8 0.00 0.00 0.00 48 1010.2
20260507090047 6 328 3.2 4.8 0.00 0.00 0.00 48 1010.1
20260507085514 6 328 3.2 4.8 0.00 0.00 0.00 47 1009.9
20260507085019 6 317 3.2 6.4 0.00 0.00 0.00 46 1010.0
20260507084548 7 317 3.2 8.0 0.00 0.00 0.00 45 1010.0
20260507084014 7 311 4.8 8.0 0.00 0.00 0.00 44 1009.8
20260507083516 7 13 3.2 9.7 0.00 0.00 0.00 44 1009.7
20260507083042 8 5 4.8 9.7 0.00 0.00 0.00 44 1009.7
20260507082518 8 347 6.4 14.5 0.00 0.00 0.00 43 1010.1
20260507082016 8 352 6.4 14.5 0.00 0.00 0.00 43 1009.8
20260507081545 8 17 8.0 11.3 0.00 0.00 0.00 43 1009.8
20260507081014 8 360 0.0 6.4 0.00 0.00 0.00 42 1009.7
20260507080507 8 137 0.0 4.8 0.00 0.00 0.00 42 1009.6
20260507080500 8 138 3.2 4.8 0.00 0.00 0.00 42 1009.3
20260507075528 8 112 3.2 4.8 0.00 0.00 0.00 43 1009.3
20260507075022 8 112 1.6 4.8 0.00 0.00 0.00 43 1009.4
20260507074551 8 112 3.2 6.4 0.00 0.00 0.00 43 1009.3
20260507074021 8 112 3.2 6.4 0.00 0.00 0.00 43 1009.6
20260507073520 8 112 4.8 6.4 0.00 0.00 0.00 42 1009.4
20260507073107 8 112 3.2 9.7 0.00 0.00 0.00 40 1009.4
20260507072519 8 113 6.4 9.7 0.00 0.00 0.00 39 1009.3
20260507072020 9 119 4.8 9.7 0.00 0.00 0.00 38 1009.4
20260507071549 10 94 4.8 12.9 0.00 0.00 0.00 36 1009.3
20260507071021 10 83 8.0 12.9 0.00 0.00 0.00 35 1009.5
20260507070522 10 71 8.0 12.9 0.00 0.00 0.00 36 1009.4
20260507070048 10 74 8.0 12.9 0.00 0.00 0.00 36 1009.3
20260507065521 10 101 3.2 6.4 0.00 0.00 0.00 36 1009.4
20260507065019 11 74 3.2 6.4 0.00 0.00 0.00 36 1009.3
20260507064604 11 134 4.8 6.4 0.00 0.00 0.00 36 1009.1
20260507064018 11 134 0.0 8.0 0.00 0.00 0.00 38 1009.4
20260507063515 11 134 1.6 8.0 0.00 0.00 0.00 39 1009.2
20260507063046 11 134 4.8 6.4 0.00 0.00 0.00 37 1009.1
20260507062519 11 84 1.6 6.4 0.00 0.00 0.00 36 1009.3
20260507062016 12 89 3.2 9.7 0.00 0.00 0.00 35 1009.4
20260507061549 12 96 4.8 9.7 0.00 0.00 0.00 33 1009.4
20260507061016 12 77 3.2 17.7 0.00 0.00 0.00 33 1009.2
20260507060529 12 76 8.0 17.7 0.00 0.00 0.00 32 1009.2
20260507060056 11 63 8.0 22.5 0.00 0.00 0.00 33 1009.2
20260507055516 12 70 16.1 24.1 0.00 0.00 0.00 32 1008.9
20260507055016 12 71 17.7 24.1 0.00 0.00 0.00 32 1008.7
20260507054556 12 69 12.9 29.0 0.00 0.00 0.00 31 1008.7
20260507054014 13 59 17.7 30.6 0.00 0.00 0.00 32 1008.5
20260507053530 14 67 22.5 37.0 0.00 0.00 0.00 31 1008.4
20260507053053 14 67 22.5 30.6 0.00 0.00 0.00 32 1008.5
20260507052513 13 65 12.9 20.9 0.00 0.00 0.00 34 1009.0
20260507052017 13 81 3.2 16.1 0.00 0.00 0.00 35 1009.0
20260507051602 13 117 6.4 17.7 0.00 0.00 0.00 34 1008.9
20260507051017 13 115 11.3 17.7 0.00 0.00 0.00 40 1008.4
20260507050516 12 155 8.0 14.5 0.00 0.00 0.00 40 1008.3
20260507050111 13 165 8.0 16.1 0.00 0.00 0.00 39 1008.5
20260507045514 13 112 9.7 22.5 0.00 0.00 0.00 32 1008.6
20260507045010 13 88 16.1 22.5 0.00 0.00 0.00 33 1008.7
20260507044609 13 109 8.0 16.1 0.00 0.00 0.00 35 1008.9
20260507044017 13 95 12.9 16.1 0.00 0.00 0.00 32 1008.8
20260507043514 13 100 4.8 11.3 0.00 0.00 0.00 31 1008.9
20260507043119 13 92 6.4 11.3 0.00 0.00 0.00 30 1008.6
20260507042517 13 88 9.7 12.9 0.00 0.00 0.00 30 1008.5
20260507042016 13 99 6.4 12.9 0.00 0.00 0.00 30 1008.7
20260507041616 12 124 4.8 9.7 0.00 0.00 0.00 30 1008.8
20260507041029 12 164 6.4 9.7 0.00 0.00 0.00 30 1008.8
20260507040527 12 188 6.4 9.7 0.00 0.00 0.00 30 1008.6
20260507040106 13 154 4.8 8.0 0.00 0.00 0.00 30 1008.6
20260507035523 13 124 4.8 11.3 0.00 0.00 0.00 30 1008.5
20260507035017 13 117 4.8 11.3 0.00 0.00 0.00 30 1008.5
20260507034543 12 119 4.8 9.7 0.00 0.00 0.00 30 1008.3
20260507034027 12 122 4.8 9.7 0.00 0.00 0.00 31 1008.3
20260507033518 12 75 6.4 8.0 0.00 0.00 0.00 32 1008.2
20260507033108 12 90 4.8 6.4 0.00 0.00 0.00 32 1008.1
20260507032523 12 140 3.2 4.8 0.00 0.00 0.00 31 1007.9
20260507032015 12 140 3.2 4.8 0.00 0.00 0.00 31 1007.9
20260507031613 12 140 3.2 6.4 0.00 0.00 0.00 31 1007.9
20260507031019 12 140 4.8 8.0 0.00 0.00 0.00 30 1007.6
20260507030518 12 140 4.8 8.0 0.00 0.00 0.00 30 1007.7
20260507030050 12 135 6.4 8.0 0.00 0.00 0.00 29 1007.7
20260507025517 12 113 6.4 9.7 0.00 0.00 0.00 29 1007.7
20260507025019 13 124 6.4 11.3 0.00 0.00 0.00 29 1007.5
20260507024557 13 134 6.4 16.1 0.00 0.00 0.00 29 1007.6
20260507024017 13 131 11.3 16.1 0.00 0.00 0.00 30 1007.6
20260507023518 13 136 4.8 6.4 0.00 0.00 0.00 29 1007.7
20260507023040 13 103 4.8 6.4 0.00 0.00 0.00 28 1007.8
20260507022516 14 103 4.8 6.4 0.00 0.00 0.00 28 1007.8
20260507022014 14 103 3.2 6.4 0.00 0.00 0.00 28 1008.0
20260507021540 15 103 3.2 6.4 0.00 0.00 0.00 29 1007.8
20260507021017 15 103 3.2 6.4 0.00 0.00 0.00 28 1007.8
20260507020514 16 103 3.2 6.4 0.00 0.00 0.00 27 1007.5
20260507020045 16 103 3.2 6.4 0.00 0.00 0.00 26 1007.7
20260507015512 17 103 3.2 9.7 0.00 0.00 0.00 25 1007.5
20260507015015 17 101 6.4 9.7 0.00 0.00 0.00 24 1007.7
20260507014535 18 80 3.2 9.7 0.00 0.00 0.00 21 1007.7
20260507014016 18 80 6.4 12.9 0.00 0.00 0.00 21 1007.9
20260507013515 19 79 8.0 12.9 0.00 0.00 0.00 20 1007.7
20260507013115 20 54 8.0 11.3 0.00 0.00 0.00 19 1007.7
20260507012515 21 53 6.4 9.7 0.00 0.00 0.00 18 1007.9
20260507012016 21 15 4.8 12.9 0.00 0.00 0.00 18 1007.7
20260507011606 21 22 3.2 14.5 0.00 0.00 0.00 19 1007.9
20260507011015 21 13 9.7 14.5 0.00 0.00 0.00 18 1007.9
20260507010521 21 41 4.8 12.9 0.00 0.00 0.00 18 1007.9
20260507005516 21 32 4.8 11.3 0.00 0.00 0.00 18 1007.9
20260507005015 21 14 1.6 14.5 0.00 0.00 0.00 18 1007.9
20260507004835 21 19 8.0 16.1 0.00 0.00 0.00 18 1008.0
20260507004016 21 5 11.3 16.1 0.00 0.00 0.00 18 1008.1
20260507003516 21 37 6.4 16.1 0.00 0.00 0.00 18 1008.0
20260507003436 21 36 6.4 17.7 0.00 0.00 0.00 18 1008.0
20260507002522 21 360 11.3 20.9 0.00 0.00 0.00 18 1008.1
20260507002029 20 45 11.3 16.1 0.00 0.00 0.00 19 1008.1
20260507001831 20 65 6.4 16.1 0.00 0.00 0.00 18 1008.2
20260507001022 20 5 9.7 16.1 0.00 0.00 0.00 18 1008.2
20260507000522 20 32 9.7 17.7 0.00 0.00 0.00 18 1008.2
20260507000315 21 29 4.8 14.5 0.00 0.00 0.00 18 1008.4
20260506235519 21 62 4.8 17.7 0.00 0.00 0.00 18 1008.4
20260506235021 21 59 4.8 17.7 0.00 0.00 0.00 18 1008.4
20260506234609 21 38 6.4 22.5 0.00 0.00 0.00 17 1008.5
20260506234019 21 5 11.3 20.9 0.00 0.00 0.00 18 1008.4
20260506233604 21 32 9.7 24.1 0.00 0.00 0.00 17 1008.5
20260506233044 21 15 17.7 24.1 0.00 0.00 0.00 17 1008.5
20260506232514 21 5 17.7 24.1 0.00 0.00 0.00 17 1008.5
20260506232017 21 305 11.3 22.5 0.00 0.00 0.00 17 1008.4
20260506231539 20 272 8.0 22.5 0.00 0.00 0.00 18 1008.8
20260506231018 20 303 12.9 22.5 0.00 0.00 0.00 17 1008.7
20260506230519 20 308 4.8 20.9 0.00 0.00 0.00 18 1008.8
20260506230129 20 246 12.9 22.5 0.00 0.00 0.00 18 1009.1
20260506225519 20 297 12.9 27.4 0.00 0.00 0.00 18 1009.2
20260506225016 20 304 8.0 27.4 0.00 0.00 0.00 17 1009.2
20260506224627 20 281 17.7 25.7 0.00 0.00 0.00 17 1009.0
20260506224015 20 295 9.7 20.9 0.00 0.00 0.00 17 1009.3
20260506223517 20 340 16.1 22.5 0.00 0.00 0.00 17 1009.3
20260506223130 20 332 16.1 22.5 0.00 0.00 0.00 18 1009.4
20260506222517 20 288 6.4 14.5 0.00 0.00 0.00 18 1009.7
20260506222018 20 61 3.2 20.9 0.00 0.00 0.00 18 1009.8
20260506221615 19 350 6.4 19.3 0.00 0.00 0.00 18 1009.9
20260506221022 19 298 11.3 22.5 0.00 0.00 0.00 19 1010.1
20260506220522 19 302 12.9 25.7 0.00 0.00 0.00 18 1010.1
20260506220110 19 305 16.1 25.7 0.00 0.00 0.00 18 1010.0
20260506215517 19 343 12.9 20.9 0.00 0.00 0.00 18 1010.1
20260506215019 18 288 11.3 22.5 0.00 0.00 0.00 19 1010.2
20260506214545 18 268 12.9 22.5 0.00 0.00 0.00 18 1010.2
20260506214015 18 327 14.5 24.1 0.00 0.00 0.00 18 1010.3
20260506213518 18 308 16.1 27.4 0.00 0.00 0.00 18 1010.6
20260506213049 18 287 12.9 25.7 0.00 0.00 0.00 19 1010.3
20260506212520 18 197 9.7 27.4 0.00 0.00 0.00 18 1010.6
20260506212021 18 263 19.3 25.7 0.00 0.00 0.00 19 1010.8
20260506211904 17 302 3.2 24.1 0.00 0.00 0.00 19 1010.7
20260506211014 17 316 4.8 17.7 0.00 0.00 0.00 19 1010.9
20260506210515 17 314 3.2 24.1 0.00 0.00 0.00 19 1010.9
20260506210046 17 295 11.3 24.1 0.00 0.00 0.00 19 1011.0
20260506205520 17 316 12.9 20.9 0.00 0.00 0.00 18 1011.2
20260506205018 17 360 11.3 25.7 0.00 0.00 0.00 18 1011.3
20260506204546 17 309 14.5 25.7 0.00 0.00 0.00 18 1011.4
20260506204015 17 360 8.0 20.9 0.00 0.00 0.00 20 1011.3
20260506203516 16 300 12.9 22.5 0.00 0.00 0.00 19 1011.5
20260506203035 16 256 6.4 25.7 0.00 0.00 0.00 20 1011.6
20260506202520 16 261 8.0 25.7 0.00 0.00 0.00 20 1011.7
20260506202013 17 266 14.5 25.7 0.00 0.00 0.00 20 1011.7
20260506201552 16 221 12.9 22.5 0.00 0.00 0.00 21 1011.8
20260506201018 16 243 11.3 27.4 0.00 0.00 0.00 20 1011.8
20260506200517 16 287 11.3 27.4 0.00 0.00 0.00 20 1011.9
20260506200056 16 241 14.5 30.6 0.00 0.00 0.00 20 1012.0